Flag for Germany Weather past 2 weeks in Salzwedel, Saxony-Anhalt, Germany

Now
57 °F

Cool.


Feels Like: 56 °F
Forecast: 62 / 88 °F
Wind: 7 mph from East

Location: Fassberg

Current Time: Jul 1, 2015 at 2:49:41 AM

Latest Report: Jul 1, 2015 at 1:20 AM


Visibility: N/A

Pressure: 30.21 "Hg

Humidity: 82%

Dew point: 52 °F

Location of SalzwedelLocation

Historic Weather in Salzwedel — Graph

°F

Salzwedel temperature yesterday

Maximum temperature yesterday: 77 °F (at 4:20 PM)
Minimum temperature yesterday: 52 °F (at 5:20 AM)
Average temperature yesterday: 65 °F

Past Weeks' High & Low Weather Summary

 TemperatureHumidityPressure
High77 °F (Jun 29, 3:20 PM)100% (Jun 17, 3:20 AM)30.27 "Hg (Jun 17, 3:20 AM)
Low36 °F (Jun 17, 4:20 AM)34% (Jun 30, 4:20 PM)29.65 "Hg (Jun 22, 9:20 PM)
Average58 °F74%30.03 "Hg
* Reported Jun 16 1:20 AM — Jul 1 1:20 AM, Salzwedel, Weather by CustomWeather, © 2015

Note: Actual official high and low records may vary slightly from our data, if they occured in-between our weather recording intervals... More about our weather records

Advertising

Salzwedel weather history for previous 24 hours

 ConditionsComfort  
Time TempWeatherWind HumidityBarometerVisibility
1:20 AM
Wed, Jul 1
57 °FCool.7 mph82%30.21 "HgN/A
12:20 AM59 °FCool.7 mph77%30.21 "HgN/A
11:20 PM
Tue, Jun 30
61 °FCool.7 mph68%30.21 "HgN/A
10:20 PM66 °FMild.2 mph52%30.21 "HgN/A
9:20 PM70 °FPassing clouds.7 mph46%30.18 "HgN/A
8:20 PM73 °FPassing clouds.10 mph44%30.18 "HgN/A
6:20 PM77 °FPassing clouds.7 mph34%30.15 "HgN/A
4:20 PM77 °FPassing clouds.7 mph34%30.18 "HgN/A
3:20 PM75 °FScattered clouds.10 mph36%30.18 "HgN/A
2:20 PM75 °FPassing clouds.6 mph36%30.18 "HgN/A
1:20 PM73 °FPassing clouds.9 mph38%30.21 "HgN/A
12:20 PM72 °FPassing clouds.8 mph41%30.21 "HgN/A
11:20 AM72 °FPassing clouds.6 mph44%30.21 "HgN/A
10:20 AM68 °FScattered clouds.5 mph49%30.21 "HgN/A
9:20 AM66 °FScattered clouds.7 mph56%30.24 "HgN/A
8:20 AM63 °FScattered clouds.7 mph68%30.21 "HgN/A
7:20 AM57 °FScattered clouds.2 mph82%30.21 "HgN/A
6:20 AM52 °FFog.No wind88%30.21 "HgN/A
5:20 AM52 °FFog.1 mph88%30.18 "HgN/A
4:20 AM54 °FFog.2 mph88%30.18 "HgN/A
3:20 AM55 °FPartly cloudy.3 mph88%30.18 "HgN/A
2:20 AM59 °FPassing clouds.6 mph77%30.18 "HgN/A
Weather by CustomWeather, © 2015

See weather overviewHow to use our weather pages